Home   Weather   San Luis Obispo   Past weeks

Flag for USA Past Weather in San Luis Obispo, California, USA — Yesterday and Last 2 Weeks

Now
49 °F

Clear.


Feels Like: 48 °F
Forecast: 42 / 56 °F
Wind: 3 mph from Southwest

Location: San Luis Obispo County-Mc Chesney Field

Current Time: Jan 23, 2017 at 7:15:33 pm

Latest Report: Jan 23, 2017 at 5:56 pm


Visibility: 10 mi

Pressure: 29.91 "Hg

Humidity: 77%

Dew Point: 42 °F

Location of San Luis ObispoLocation

Past Weather in San Luis Obispo — Graph

°F

San Luis Obispo Temperature Yesterday

Maximum temperature yesterday: 59 °F (at 1:56 pm)
Minimum temperature yesterday: 50 °F (at 3:56 am)
Average temperature yesterday: 55 °F

High & Low Weather Summary for the Past Weeks

 TemperatureHumidityPressure
High67 °F (Jan 14, 1:56 pm)96% (Jan 9, 3:56 am)30.18 "Hg (Jan 9, 3:56 am)
Low36 °F (Jan 16, 5:56 am)37% (Jan 14, 3:56 pm)29.45 "Hg (Jan 20, 2:02 pm)
Average53 °F78%29.97 "Hg
* Reported Jan 8 5:56 pm — Jan 23 5:56 pm, San Luis Obispo, Weather by CustomWeather, © 2017

Note: Actual official high and low records may vary slightly from our data, if they occured in-between our weather recording intervals... More about our weather records

Advertising

San Luis Obispo Weather History for the Previous 24 Hours

Scroll right to see more
 ConditionsComfort  
Time TempWeatherWind HumidityBarometerVisibility
5:56 pm
Mon, Jan 23
49 °FClear.3 mph77%29.91 "Hg10 mi
4:56 pm52 °FScattered clouds.8 mph69%29.90 "Hg10 mi
3:56 pm54 °FSunny.10 mph62%29.90 "Hg10 mi
2:56 pm54 °FPartly sunny.12 mph64%29.88 "Hg10 mi
1:56 pm53 °FSunny.No wind69%29.88 "Hg10 mi
1:06 pm51 °FBroken clouds.7 mph74%29.89 "Hg10 mi
12:56 pm50 °FLight rain. Cloudy.9 mph77%29.90 "Hg7 mi
11:56 am52 °FSunny.6 mph75%29.90 "Hg10 mi
10:56 am51 °FBroken clouds.3 mph74%29.91 "Hg10 mi
9:56 am49 °FPassing clouds.3 mph84%29.90 "Hg10 mi
8:56 am47 °FRain. Fog.No wind86%29.89 "Hg4 mi
7:56 am45 °FSunny.3 mph90%29.86 "Hg10 mi
6:56 am46 °FPassing clouds.No wind86%29.85 "Hg10 mi
5:56 am48 °FRain. Overcast.5 mph80%29.84 "Hg5 mi
4:56 am49 °FOvercast.3 mph80%29.81 "Hg10 mi
3:56 am50 °FMostly cloudy.6 mph80%29.82 "Hg10 mi
2:56 am51 °FLight rain. Overcast.No wind77%29.81 "Hg10 mi
1:56 am52 °FLight rain. Mostly cloudy.10 mph77%29.82 "Hg10 mi
12:56 am54 °FPartly cloudy.9 mph69%29.81 "Hg10 mi
11:56 pm
Sun, Jan 22
54 °FPartly cloudy.15 mph74%29.80 "Hg10 mi
10:56 pm54 °FPartly cloudy.10 mph77%29.81 "Hg10 mi
9:56 pm53 °FPassing clouds.8 mph83%29.80 "Hg10 mi
8:56 pm54 °FPartly cloudy.14 mph77%29.80 "Hg10 mi
7:56 pm53 °FLight rain. Mostly cloudy.9 mph86%29.79 "Hg10 mi
7:07 pm57 °FPartly cloudy.15 mph81%29.77 "Hg10 mi
Weather by CustomWeather, © 2017

See weather overviewHow to use our weather pages